GFSSGP_850_rhum_336.txt.gz
RH
69 93 97 95 58 43 60 70 67 68 52 50 49 44 47 51 48 63 69 82 86 94 98 86 78 79 75 72 68 74 73 71 70 70 71 64 60 58 46 43 43 40 38 45 50 51 56 51 49
91 96 89 67 65 41 52 54 60 62 50 47 46 44 45 54 57 69 68 87 84 90 94 86 80 75 74 70 81 77 73 71 69 72 72 63 55 51 48 44 42 48 49 56 68 52 47 45 43
95 90 63 39 33 37 43 38 43 49 44 42 44 48 48 58 64 68 77 86 83 92 91 83 83 74 74 72 81 77 74 75 72 76 84 64 57 51 49 48 49 49 42 53 51 47 47 54 56
85 87 65 34 38 34 35 35 38 38 40 41 42 48 66 80 69 72 80 82 82 89 99 88 84 78 76 75 82 81 77 76 82 79 84 88 84 54 47 41 35 36 44 39 46 51 53 53 54
78 55 30 31 38 33 29 32 35 36 40 40 38 47 64 86 82 82 81 80 84 88 97 95 90 84 77 79 83 81 80 80 81 73 78 66 58 54 50 35 33 38 44 39 41 49 61 74 74
55 38 28 34 38 34 32 33 34 36 41 43 41 47 68 86 83 86 77 75 90 87 97 87 91 98 98 94 84 82 82 79 83 89 64 60 58 52 56 48 46 38 38 45 53 64 74 72 70
41 26 31 31 38 37 33 34 33 35 37 38 42 41 67 76 86 89 84 80 91 91 95 90 91 96 99 93 79 77 76 82 69 64 58 64 75 80 80 64 37 48 58 59 62 67 70 72 75
42 27 32 31 31 38 33 34 37 34 38 42 41 40 51 76 90 89 86 91 90 96 97 94 89 91 92 93 84 81 82 70 66 70 76 80 70 68 51 36 48 62 64 64 67 70 70 75 75
46 27 29 29 28 36 33 33 36 39 39 46 46 45 63 80 87 85 88 90 89 100 99 95 89 88 88 81 74 70 60 52 49 63 67 72 88 87 68 84 62 65 67 69 72 73 71 70 75
33 24 26 24 24 28 31 32 37 36 38 47 58 68 75 77 81 79 80 84 87 94 98 94 90 85 85 71 64 62 69 96 83 85 84 86 86 84 77 77 60 63 64 64 65 71 70 68 65
30 26 22 22 25 26 29 32 34 32 34 36 47 59 66 67 68 69 85 87 88 90 100 98 96 81 89 74 64 52 78 76 82 88 84 94 88 82 71 76 79 85 70 75 75 75 65 68 67
30 26 24 26 29 29 29 32 31 35 31 35 46 54 60 59 60 63 71 85 89 91 99 99 98 90 79 79 68 53 63 72 83 86 88 92 81 80 79 70 76 75 65 68 68 69 73 79 76
29 26 28 28 29 30 32 30 28 34 34 40 49 55 56 56 60 64 71 85 98 95 99 96 100 99 93 87 89 74 61 71 71 78 95 87 81 83 78 79 76 81 75 72 73 75 76 77 72
28 27 27 28 28 30 29 29 27 35 37 43 49 52 54 57 59 67 73 86 99 92 98 93 98 98 99 90 89 78 76 67 69 70 96 91 88 91 84 87 80 83 80 77 80 82 81 80 74
28 30 28 28 30 30 29 34 27 31 37 41 45 48 52 58 62 65 68 77 97 98 98 95 96 97 98 96 87 90 76 71 63 69 73 68 75 66 81 90 88 84 86 78 82 84 80 75 72
28 27 35 31 30 32 30 33 28 32 37 38 41 47 52 59 64 68 72 74 88 100 99 93 95 99 95 95 94 93 83 76 66 67 76 72 64 73 77 85 86 77 85 78 80 82 79 76 78
30 35 33 35 30 32 30 32 28 33 35 36 40 46 51 58 66 70 74 78 82 88 98 93 98 100 98 98 97 89 98 88 84 71 78 72 80 84 79 85 84 69 84 81 83 82 80 80 79
38 37 42 36 31 31 32 32 28 32 31 33 36 40 47 52 62 68 71 77 82 92 84 98 94 99 100 99 100 93 94 92 70 68 64 78 87 83 79 84 71 68 81 84 86 75 88 88 81
29 36 31 31 38 36 36 34 36 30 30 30 33 35 42 48 67 65 69 77 83 94 71 99 98 89 97 96 91 80 87 72 72 80 76 70 86 75 67 81 74 70 78 67 67 92 90 84 81
26 31 36 46 50 40 46 41 31 32 31 28 30 37 43 47 60 64 67 72 76 89 86 80 96 90 93 95 97 96 73 90 73 98 78 74 76 76 69 68 68 66 71 90 83 79 95 84 90
25 29 30 34 41 35 37 44 35 27 31 33 30 34 48 44 54 60 64 68 74 82 89 95 99 90 94 96 98 95 96 94 96 95 75 72 68 76 74 68 65 60 63 89 92 92 93 84 90
29 28 30 40 42 49 35 46 28 26 29 30 30 34 37 46 52 57 60 65 68 71 81 88 94 97 96 95 99 99 90 84 76 80 86 73 72 62 71 65 64 57 84 94 95 96 89 86 83
31 28 30 34 39 38 37 41 27 24 28 28 30 30 32 38 44 52 56 59 64 73 75 59 59 97 96 88 98 99 94 91 91 82 86 70 73 68 69 64 59 83 95 93 82 85 74 82 92
30 32 36 36 36 46 33 34 26 26 25 24 24 30 32 33 41 48 54 59 64 73 77 81 58 69 93 79 95 97 98 96 88 78 81 62 65 61 61 55 79 74 74 83 88 74 78 89 85
30 26 32 38 48 43 31 35 28 23 24 21 23 27 30 34 40 46 52 58 64 72 74 78 86 84 79 71 97 96 92 79 69 66 59 62 64 65 72 77 69 75 80 75 74 78 84 83 86
27 24 31 38 43 30 32 32 24 21 23 23 21 23 28 34 44 42 50 56 62 71 75 76 87 69 72 69 71 68 68 73 60 58 78 80 75 70 67 64 73 77 75 78 86 91 90 90 92
29 30 25 24 23 32 26 24 20 20 22 23 21 21 28 32 40 39 49 56 60 68 75 76 83 85 62 67 63 61 70 70 70 71 72 65 66 66 74 77 76 78 84 92 94 95 94 91 93
24 22 27 27 37 44 27 28 24 22 23 23 21 22 26 34 38 40 47 53 60 64 71 75 80 70 86 61 58 59 62 59 58 60 63 73 71 71 76 76 78 90 95 95 93 94 85 74 91
28 26 25 22 24 34 31 28 21 24 24 23 22 23 28 34 38 41 44 47 55 61 68 73 76 61 65 65 58 54 58 60 68 67 70 67 72 70 74 91 96 94 86 80 84 87 78 71 77
13 18 21 25 36 26 28 27 17 21 20 21 19 23 28 34 38 42 45 46 52 60 63 68 70 71 68 60 63 64 70 73 77 76 67 75 80 86 96 94 73 72 81 84 81 78 73 72 70

GFSSGP_850_rhum_339.txt.gz
RH
63 80 87 92 76 43 50 48 42 41 42 38 35 35 37 40 50 72 66 82 89 93 96 84 76 74 71 71 76 72 69 70 67 64 62 58 55 55 51 44 39 42 38 35 38 42 48 48 48
77 78 76 70 61 50 47 46 47 41 40 36 32 33 37 43 52 61 71 76 83 93 98 86 78 73 71 71 75 71 70 69 67 66 58 55 52 45 44 44 41 44 50 50 60 43 42 41 40
82 77 70 72 30 43 46 47 40 36 35 32 34 36 46 46 57 68 73 77 92 94 78 84 79 73 68 76 78 72 72 71 72 65 59 52 50 46 42 42 44 45 42 55 48 45 46 52 52
77 76 65 40 35 28 28 30 32 31 31 31 32 42 57 66 63 63 75 82 89 93 75 81 80 74 77 83 77 75 73 72 73 73 62 55 50 49 46 45 41 37 47 42 42 50 54 54 61
60 50 34 35 28 24 24 26 27 28 30 30 31 44 62 68 55 58 78 83 91 90 91 80 84 82 76 84 79 76 74 77 82 89 83 83 59 48 44 34 36 41 43 40 45 56 75 73 72
58 34 31 30 28 24 24 25 25 27 30 30 33 41 56 70 67 56 76 81 90 93 99 87 87 88 84 90 83 79 77 81 85 90 72 62 56 49 40 39 42 39 40 50 57 72 71 68 66
65 26 25 24 26 27 26 25 24 27 28 28 31 37 52 76 78 65 72 77 90 94 99 93 94 90 94 95 86 80 81 82 81 72 59 56 55 77 85 55 38 53 56 57 64 66 70 72 73
27 23 27 29 25 29 25 26 26 24 28 30 30 34 43 74 76 74 67 86 90 99 99 88 92 78 99 95 89 79 81 74 66 58 62 72 74 73 55 38 54 59 62 65 68 69 72 72 69
30 36 26 25 25 27 25 26 29 28 29 32 34 38 48 70 74 75 74 85 91 92 99 98 90 82 84 84 84 81 76 66 64 66 74 71 86 85 59 93 61 63 66 70 71 68 66 63 68
30 25 21 18 20 23 24 25 28 27 31 36 43 50 52 59 72 74 78 72 88 97 95 100 92 86 85 80 73 63 63 82 90 89 83 91 81 76 77 78 62 63 65 64 68 68 61 64 57
35 23 17 18 20 21 23 25 26 25 27 31 38 45 48 50 51 54 70 75 75 89 99 99 99 92 84 77 73 56 74 88 82 80 83 89 75 73 65 72 75 77 67 73 72 70 65 60 61
33 18 18 19 23 21 22 24 24 29 25 31 37 40 42 42 42 45 53 68 67 87 99 99 99 91 89 70 61 69 76 79 83 82 82 79 69 62 63 58 64 58 56 59 61 56 63 67 65
23 20 20 21 22 23 24 23 24 27 27 31 36 39 38 39 41 45 50 54 55 82 97 93 96 81 80 69 54 50 70 76 83 82 82 69 66 67 65 63 61 61 62 57 58 60 64 73 76
22 20 20 22 22 23 22 22 24 26 28 32 36 36 37 39 43 50 56 63 64 79 97 93 91 90 74 70 58 79 57 72 80 82 81 76 77 69 63 67 68 63 61 66 63 70 80 71 69
22 23 20 21 22 22 23 25 24 26 28 31 33 34 36 40 44 49 50 62 72 72 96 94 97 87 87 84 84 82 65 74 66 75 82 85 84 69 74 76 70 65 68 69 69 76 72 67 68
24 24 34 25 23 24 31 69 22 25 26 29 30 33 36 41 45 50 54 56 71 83 94 94 94 89 89 83 87 78 75 96 73 79 78 95 93 82 70 67 66 77 76 63 75 71 66 68 65
25 71 69 76 24 24 26 81 35 24 26 27 29 32 37 44 48 51 59 61 68 81 93 99 93 94 89 84 87 97 99 79 71 70 68 69 90 89 84 69 69 82 72 66 70 69 76 74 69
74 32 34 32 55 25 26 30 43 24 26 28 31 34 37 39 46 52 56 62 67 87 100 100 96 97 91 88 90 92 93 97 80 72 72 66 90 93 79 75 86 80 71 73 81 79 83 86 79
23 25 32 30 27 28 31 31 39 70 57 29 28 33 35 38 47 49 54 61 68 82 99 94 92 94 97 91 91 92 91 96 80 78 66 49 76 86 82 86 79 80 74 81 89 86 85 85 82
22 29 45 24 32 32 28 28 26 36 30 31 27 31 31 35 47 49 52 58 64 76 92 94 93 86 92 89 93 99 84 82 80 73 66 59 72 90 92 79 89 84 79 77 92 86 85 87 88
35 34 51 26 30 28 29 34 29 23 23 26 29 27 28 32 40 46 51 55 60 75 85 96 95 90 88 92 92 96 91 88 84 90 75 64 64 95 81 74 76 68 69 80 85 83 93 80 74
29 29 21 26 31 44 30 40 37 28 23 23 24 32 28 34 39 45 48 52 55 65 75 94 99 98 89 95 90 89 97 84 82 83 81 84 71 66 62 90 82 64 68 85 81 83 83 88 83
30 45 23 22 27 29 34 42 46 26 25 22 23 23 26 30 36 42 44 52 55 60 67 81 96 96 95 91 90 94 98 85 78 74 85 77 78 70 65 83 65 69 93 82 89 96 93 96 92
22 22 22 23 29 46 67 32 46 47 19 19 20 21 22 27 33 37 42 48 55 58 62 78 89 95 94 94 91 92 92 88 93 77 78 82 74 79 73 76 65 89 82 86 88 99 98 97 86
22 22 34 58 84 94 68 24 26 17 17 15 17 21 22 27 31 36 41 45 50 58 61 77 89 94 97 92 93 93 97 96 95 82 77 79 83 79 85 76 93 80 84 92 98 99 92 86 90
21 20 62 56 34 65 57 29 25 17 17 16 17 20 22 25 28 35 41 46 49 57 62 67 87 90 95 95 94 91 99 90 81 75 83 85 87 86 74 72 69 75 97 100 97 88 87 96 94
21 22 20 29 17 26 60 48 21 17 17 17 16 19 21 24 28 34 40 46 51 57 61 63 82 87 83 71 86 94 95 85 69 60 74 73 67 69 73 80 75 86 91 90 89 97 93 93 90
16 20 26 33 38 49 47 48 86 22 20 17 16 17 20 24 29 33 38 43 50 55 59 62 73 79 66 57 62 94 92 76 66 67 65 73 73 82 92 76 93 92 91 92 86 88 77 81 90
19 21 18 25 20 30 26 57 62 26 18 18 16 16 18 22 29 30 38 41 46 50 55 61 67 70 63 57 54 60 64 58 60 59 61 67 70 78 82 90 92 89 78 68 65 71 86 98 91
12 14 13 19 24 51 37 30 29 15 16 17 16 18 18 23 28 31 37 40 45 48 51 57 65 66 69 50 50 52 57 58 68 92 77 65 74 77 89 94 92 67 63 80 69 86 98 94 90

GFSSGP_850_rhum_342.txt.gz
RH
54 66 74 91 56 37 49 50 40 49 39 30 31 35 42 48 51 86 81 81 92 97 83 82 75 72 80 79 78 76 74 70 68 69 65 51 46 35 31 37 39 41 37 35 38 40 44 44 38
80 82 85 76 64 46 51 36 55 43 33 30 33 41 52 58 65 78 82 82 92 96 95 81 75 71 78 81 75 73 73 80 70 63 56 53 51 48 42 41 41 43 52 58 58 40 41 42 42
79 71 76 85 43 45 48 43 40 30 30 28 39 47 48 56 61 75 81 82 92 97 90 80 74 69 70 77 74 71 67 67 62 57 54 49 42 41 40 40 47 44 49 61 48 43 46 50 50
75 74 74 61 33 37 37 36 31 26 26 29 38 47 54 59 67 75 83 82 79 90 82 85 77 69 74 78 75 73 74 70 63 56 51 47 46 45 46 46 42 42 50 43 42 49 50 51 64
70 74 61 26 28 25 30 30 26 27 27 42 45 52 55 59 70 73 80 88 93 91 80 84 79 80 83 80 76 73 71 72 70 61 57 49 50 45 40 34 38 40 43 41 46 58 64 63 62
68 67 49 29 24 23 21 22 24 25 26 30 41 57 59 55 65 69 79 87 89 80 77 79 77 84 88 84 80 75 76 80 78 76 79 66 52 44 36 38 40 36 42 48 63 66 64 59 55
84 58 27 27 25 24 22 21 23 24 25 26 35 57 65 62 68 76 78 84 95 95 80 82 79 80 92 89 81 77 77 78 83 73 57 56 54 66 53 39 45 50 53 62 64 68 67 66 67
67 29 27 24 25 26 21 21 22 24 26 26 30 44 65 64 67 76 83 89 98 90 86 80 81 82 91 90 89 83 80 80 73 63 49 69 73 69 41 42 56 60 64 66 68 70 68 68 64
48 34 30 27 24 24 22 23 24 24 27 34 41 55 65 70 64 74 90 92 90 94 88 87 71 89 88 75 70 75 75 64 60 62 68 74 83 60 54 70 62 63 67 66 63 56 56 61 64
54 43 28 19 18 20 21 23 24 25 28 35 40 50 63 70 64 64 76 89 92 98 96 87 77 74 88 80 73 67 58 66 74 87 72 81 90 74 85 55 58 59 61 72 64 66 64 67 58
37 21 15 19 19 19 21 21 23 22 27 31 36 39 47 68 67 69 76 83 91 98 97 94 84 74 78 74 66 66 84 91 86 76 75 94 81 71 69 63 68 73 72 64 54 60 69 59 63
29 16 16 17 19 18 20 20 24 26 26 30 34 35 40 48 64 66 66 81 89 95 97 97 89 88 84 76 71 73 70 79 70 75 79 78 73 60 63 71 69 53 68 60 57 57 60 69 70
25 20 17 18 19 20 20 21 22 23 27 30 32 32 35 38 46 51 50 63 76 92 91 96 94 89 84 74 74 67 65 51 76 76 65 74 76 62 55 64 62 61 62 64 68 60 66 64 74
31 23 18 19 20 20 19 20 22 23 26 30 30 31 33 35 40 42 47 66 79 86 97 97 99 96 89 69 63 71 73 71 78 72 76 89 70 63 70 62 67 67 67 55 56 65 66 69 68
24 27 19 22 21 21 21 23 26 23 26 27 30 32 36 39 38 43 47 53 72 86 77 96 97 99 94 81 60 50 59 78 74 77 80 78 67 65 72 68 68 80 63 72 76 63 64 70 61
28 51 60 44 46 26 24 39 32 24 24 26 29 34 35 41 46 47 51 55 62 76 78 91 95 100 89 74 68 58 81 59 69 82 70 78 78 59 67 72 73 67 62 72 63 74 77 65 66
41 60 64 73 48 50 37 43 30 33 29 25 28 29 32 39 46 48 52 60 67 79 82 94 93 99 92 89 81 84 82 79 75 64 62 67 88 72 67 72 74 66 68 70 68 72 69 70 71
68 55 54 60 61 50 42 39 33 31 44 41 43 28 33 38 47 52 52 58 64 83 85 87 88 99 90 89 92 95 93 93 70 69 63 69 86 90 59 79 77 68 77 73 71 62 80 79 86
32 36 35 39 33 34 31 39 33 35 40 38 42 46 34 38 43 48 54 60 72 79 93 92 90 94 90 96 95 89 89 91 94 70 64 67 70 75 73 72 84 80 76 74 73 86 79 83 84
26 33 36 26 36 32 30 33 44 44 31 30 38 54 35 38 47 48 56 60 65 82 78 98 90 90 91 89 86 89 85 85 91 79 68 73 58 69 88 79 76 81 71 61 84 82 77 73 70
28 29 35 32 27 27 27 30 47 48 34 30 34 42 36 42 42 46 52 58 61 77 90 96 90 89 88 88 91 88 89 87 85 73 66 56 47 59 72 77 73 68 64 72 83 79 82 75 72
33 25 26 30 27 34 25 39 32 38 45 34 34 31 34 46 41 42 49 57 60 74 85 90 92 87 86 87 87 87 91 89 83 78 72 65 62 56 64 63 74 74 62 72 82 80 80 88 84
27 24 28 22 29 33 74 68 64 51 31 23 28 29 33 31 36 42 50 54 57 67 77 94 92 91 88 89 84 81 80 81 84 74 81 75 69 65 64 61 65 64 62 82 85 86 86 89 87
28 42 41 43 53 58 70 74 76 56 51 39 20 27 34 48 31 45 54 53 57 61 68 85 85 86 87 85 84 84 82 81 84 84 76 78 68 63 72 66 67 66 79 80 86 88 85 87 87
24 42 58 75 60 77 49 54 55 44 29 32 21 29 34 33 30 46 48 53 57 58 62 76 85 80 85 82 78 81 82 80 79 80 77 80 78 76 79 84 79 84 74 84 88 92 86 85 84
23 18 31 52 53 58 62 68 74 55 28 13 16 19 27 29 28 36 49 55 56 57 61 70 85 90 89 92 88 89 79 80 81 78 83 77 82 84 85 75 81 76 86 89 88 86 90 87 85
18 29 26 30 28 32 66 52 59 40 25 14 15 18 24 25 28 35 45 49 51 56 61 66 74 88 86 88 75 81 82 88 82 77 75 69 76 81 70 73 88 84 86 87 87 89 74 88 86
13 21 46 34 40 44 61 77 87 60 32 15 16 18 19 23 29 33 36 41 48 53 58 66 66 85 87 92 78 74 85 84 80 59 71 70 72 77 84 85 86 91 93 91 94 88 68 68 83
16 22 23 19 23 31 50 87 44 47 33 24 15 16 18 23 29 34 37 40 46 51 56 60 68 79 70 60 83 78 88 85 67 67 66 76 82 90 87 84 89 99 86 66 75 70 75 67 65
10 12 13 17 19 30 33 40 69 48 27 23 14 15 19 23 28 35 36 40 44 50 54 59 67 71 46 54 56 69 84 65 61 61 72 79 79 90 94 92 98 80 83 81 87 92 78 53 42

GFSSGP_850_rhum_345.txt.gz
RH
57 82 83 88 80 64 67 72 73 42 41 50 54 58 65 72 67 94 94 81 80 78 83 71 74 74 74 76 71 67 66 65 59 49 42 37 29 28 32 38 39 37 34 35 37 41 41 34 34
68 90 90 80 66 72 68 56 50 42 37 47 53 57 68 78 82 94 93 87 79 78 83 72 74 74 77 78 70 62 63 69 63 53 49 44 36 34 36 39 40 45 44 58 43 38 42 44 48
73 86 76 86 64 64 61 58 52 34 33 42 47 55 61 80 77 86 90 90 79 80 80 72 70 75 74 77 73 70 62 62 58 52 50 47 45 44 42 41 48 37 48 46 43 39 45 46 47
78 78 72 83 50 43 46 49 45 28 42 48 50 60 64 68 78 84 85 86 87 79 80 71 68 72 72 72 72 67 61 57 56 53 46 40 39 40 41 44 38 44 41 37 41 46 45 50 56
82 83 86 52 45 36 32 31 27 41 44 48 53 60 68 69 80 77 84 78 72 79 77 81 69 75 75 72 72 71 65 62 54 50 46 44 43 39 36 33 38 39 39 38 47 56 54 55 49
64 85 73 43 32 33 31 27 26 36 46 53 56 63 72 76 83 85 80 79 74 80 78 78 75 79 79 73 73 69 69 68 67 64 53 46 45 38 36 37 37 39 43 50 61 62 56 51 57
70 79 57 32 30 27 24 24 25 26 49 51 53 66 76 80 80 86 89 86 76 78 74 73 82 79 78 82 75 74 72 72 72 72 52 46 46 48 36 42 48 50 56 59 57 57 63 65 62
84 76 38 31 29 31 21 22 25 26 45 54 45 63 85 82 79 91 87 86 81 77 76 75 79 74 68 72 72 71 66 64 66 56 50 66 55 33 41 55 60 64 64 63 62 60 63 66 65
81 79 38 30 30 28 23 24 24 37 53 58 54 64 78 78 79 91 92 93 87 81 78 78 78 76 72 67 65 69 65 65 52 51 64 71 58 41 58 59 61 65 63 58 60 64 66 61 59
72 55 31 21 23 24 23 24 25 35 53 64 67 64 75 72 71 75 86 95 88 84 82 77 76 81 73 67 67 71 68 56 49 67 79 75 63 62 52 54 57 61 63 60 56 61 67 60 66
41 40 22 20 19 22 22 23 24 33 42 65 68 67 66 65 67 75 79 78 77 81 83 74 83 81 74 67 67 59 50 54 48 67 83 76 75 68 63 70 69 64 63 66 60 60 69 72 68
41 20 17 18 18 21 21 23 26 30 36 44 54 53 60 69 74 82 80 74 80 81 81 75 73 77 75 72 69 56 50 54 67 68 75 76 72 71 64 68 59 66 68 69 68 77 73 69 65
36 28 18 19 20 20 20 24 27 29 33 34 45 51 56 64 65 70 74 75 79 80 81 80 77 68 69 72 67 64 66 71 63 69 70 76 73 68 66 69 64 71 77 71 66 68 65 66 68
24 30 26 30 36 19 22 23 25 29 31 32 33 42 56 60 64 69 75 82 84 82 88 83 83 80 78 73 70 70 66 54 73 73 73 76 74 67 61 56 61 68 69 74 70 68 65 66 63
30 31 28 39 37 31 30 33 29 28 30 30 33 37 43 51 57 61 72 79 86 84 84 89 90 91 84 79 72 64 67 64 76 79 84 78 70 60 66 67 66 61 63 64 68 70 66 66 68
40 53 54 37 38 39 38 42 32 29 29 29 33 35 40 41 41 48 50 59 80 82 83 87 98 96 92 76 68 73 73 73 78 76 81 84 72 64 69 71 74 73 60 65 71 68 68 67 66
52 66 60 52 37 42 43 52 34 32 30 34 36 38 46 44 49 48 54 58 76 78 83 86 98 98 98 93 71 60 53 60 66 77 82 79 69 61 71 80 75 70 60 68 70 66 57 70 73
63 58 48 56 43 43 43 51 36 31 36 40 34 39 46 49 49 53 55 59 65 73 78 82 93 95 98 83 74 67 61 82 73 63 70 64 68 56 64 80 80 70 65 68 57 62 73 74 76
38 48 54 48 39 43 45 48 43 32 39 37 39 38 50 51 48 53 58 61 67 67 71 83 90 96 99 94 90 88 88 79 76 70 65 58 57 50 58 79 80 76 65 62 64 72 73 71 76
42 46 55 44 36 46 48 46 42 36 43 39 37 42 43 48 54 57 62 62 65 68 75 80 88 97 98 92 89 90 86 83 81 78 70 64 60 54 56 68 76 66 62 64 63 76 77 74 86
30 41 48 46 38 61 72 80 56 60 59 43 39 40 43 35 59 60 62 62 64 62 67 83 91 92 92 92 93 91 90 90 90 80 76 63 60 56 66 76 71 72 64 63 74 79 85 81 84
37 32 33 33 39 53 66 89 79 81 80 62 40 43 33 45 57 58 59 65 65 62 60 66 86 86 91 93 90 86 83 85 78 68 72 65 58 49 48 65 62 56 63 63 79 83 91 88 86
33 25 30 42 46 51 64 66 79 83 77 61 55 36 46 45 52 56 66 64 61 60 46 56 81 82 86 92 87 85 88 89 79 78 79 66 64 62 55 56 57 55 62 76 79 86 85 85 84
26 31 49 66 71 73 75 67 68 64 54 50 47 40 44 40 37 59 66 62 67 65 60 57 72 82 83 85 85 86 86 88 87 81 72 73 72 64 67 65 61 63 79 79 86 89 89 85 80
30 41 66 75 84 83 74 59 62 54 52 52 49 49 40 34 46 56 64 46 66 64 66 69 62 77 84 86 84 81 81 80 75 77 75 77 79 68 74 80 74 76 82 83 92 90 90 84 82
42 58 59 64 66 71 65 72 62 49 47 54 38 40 40 33 53 58 45 56 60 64 66 69 69 69 81 83 79 81 82 82 78 82 81 79 84 80 75 79 84 82 81 89 94 91 91 89 88
43 47 32 35 39 57 74 69 57 48 52 50 44 43 43 40 55 46 53 59 62 64 61 60 65 77 82 72 71 83 81 84 80 80 83 83 79 77 78 88 79 79 85 90 89 84 80 85 79
23 20 40 70 74 77 91 84 78 52 44 39 54 32 38 38 48 57 57 58 59 58 58 58 64 67 84 83 80 74 78 84 88 83 81 74 75 76 75 79 81 88 93 90 84 78 65 79 73
22 36 36 74 77 76 78 84 64 50 45 44 48 36 32 39 48 52 48 53 57 58 58 61 67 55 80 74 78 78 84 84 83 65 75 78 80 82 80 87 91 98 99 99 87 83 66 64 64
15 24 34 41 39 39 46 74 46 52 43 47 38 35 30 32 41 42 49 56 58 57 60 60 67 47 66 64 72 78 83 71 69 70 68 76 74 81 94 94 100 98 75 77 67 67 55 54 37